[[{"header":{"parameterUnit":"m.s-1","parameterCategory":1,"la1":30.2991,"la2":30.254,"lo1":-89.0895,"lo2":-89.0444,"dy":0.0017,"dx":0.0017,"nx":28,"ny":28,"refTime":"2025-04-11T03:00:00:Z","depth":0,"parameterNumber":2,"parameterNumberName":"U-component_of_WINDS"},"data":[0,0,0,0,0,0,0,0,0,0,0,0,0,0,0,0,0,0,0,0,0,0,0,0,0,0,0,0,0,0,0,0,0,0,0,0,0,0,0,0,0,0,0,0,0,0,0,0,0,0,0,0,0,0,0,0,0,0,1.8601,1.8602,0,1.8703,1.8704,1.8706,1.8722,1.8721,1.8721,1.872,1.8828,1.8832,1.8835,0,0,0,0,0,0,0,0,0,0,0,0,0,1.8426,1.8429,1.8601,1.8602,1.8604,1.8703,1.8705,1.8706,1.8722,1.8721,1.872,1.8719,1.8827,1.8831,1.8836,0,0,0,0,0,0,0,0,0,0,0,0,0,1.8513,1.843,1.8601,1.8624,1.8627,1.8703,1.8705,1.8706,1.8723,1.8721,1.872,1.8719,1.8825,1.8831,1.8836,1.8898,0,0,1.8853,1.8856,0,0,0,0,0,0,0,0,1.8508,1.8519,1.8619,1.8622,1.8626,1.8699,1.8683,1.8771,1.8723,1.8686,1.872,1.8718,1.8786,1.8795,1.8817,1.8903,1.8907,1.8854,1.8857,1.886,1.8861,0,0,0,0,0,0,0,1.8502,1.8515,1.8642,1.8621,1.8625,1.8631,1.8642,1.8699,1.8743,1.869,1.8691,1.8703,1.8788,1.8812,1.882,1.8909,1.8854,1.8859,1.8862,1.8864,1.9054,1.9055,0,0,0,0,0,0,1.8491,1.851,1.8638,1.8645,1.8562,1.8635,1.8647,1.8677,1.8742,1.8751,1.8704,1.8703,1.8803,1.8813,1.8824,1.8902,1.886,1.8865,1.8868,1.9052,1.9054,1.9056,0,0,0,0,0,0,1.8487,1.8502,1.8634,1.8578,1.8595,1.8639,1.8673,1.8679,1.8703,1.8753,1.8761,1.872,1.8802,1.8816,1.888,1.8906,1.8867,1.8872,1.905,1.9053,1.9055,1.9058,0,0,0,0,0,0,1.8482,1.8501,1.8523,1.8578,1.8598,1.8687,1.8674,1.8682,1.8712,1.8713,1.877,1.8778,1.8802,1.8871,1.8885,1.8913,1.8877,1.9048,1.9051,1.9054,1.9056,1.906,1.9064,0,0,0,0,0,1.8475,1.852,1.8524,1.8539,1.8626,1.8688,1.87,1.8725,1.8714,1.8738,1.8771,1.8777,1.8901,1.8878,1.8894,1.8923,1.9046,1.905,1.9054,1.9054,1.9059,1.9064,0,0,0,0,0,0,1.8467,1.8527,1.8532,1.8595,1.8636,1.8691,1.8721,1.873,1.8776,1.8774,1.8805,1.8818,1.8881,1.8908,1.8882,1.8988,1.8973,1.898,1.8967,1.8973,1.8977,1.897,1.8881,0,0,0,0,0,1.8472,1.8516,1.8567,1.8618,1.8638,1.8676,1.8704,1.872,1.8765,1.8782,1.8819,1.8863,1.8913,1.8944,1.8992,1.906,1.9074,1.9089,1.9093,1.9096,1.9102,1.9143,1.9151,1.9068,1.9068,1.9068,0,0,1.8484,1.8523,1.8548,1.8617,1.8651,1.8697,1.8691,1.8739,1.8775,1.879,1.8853,1.8882,1.8933,1.9,1.9031,1.9025,1.9128,1.9101,1.9103,1.9107,1.9148,1.9155,1.9162,1.9071,1.907,1.907,0,0,1.853,1.8562,1.8609,1.8643,1.8694,1.872,1.8731,1.8785,1.8805,1.8868,1.8881,1.8925,1.9008,1.9045,1.9074,1.9137,1.9145,1.9152,1.9174,1.9213,1.922,1.9226,1.925,1.9258,1.9158,1.9158,1.9158,0,1.8538,1.8607,1.8632,1.8682,1.8713,1.8728,1.8778,1.881,1.8874,1.8897,1.8888,1.8995,1.9031,1.9108,1.9123,1.9146,1.9162,1.9145,1.9217,1.9223,1.9229,1.9253,1.9261,1.9158,1.9158,1.9158,1.9158,0,1.8616,1.8664,1.8697,1.8758,1.8793,1.8842,1.8877,1.8909,1.8923,1.895,1.9016,1.906,1.9118,1.9137,1.9151,1.9217,1.9212,1.921,1.9196,1.9237,1.926,1.9269,1.9159,1.9159,1.9159,1.9158,0,0,1.8658,1.8735,1.8746,1.8775,1.8834,1.8873,1.8924,1.898,1.9008,1.9053,1.9098,1.917,1.9169,1.9203,1.9221,1.9256,1.9306,1.925,1.9252,1.926,1.9384,1.9386,1.9396,1.9311,1.9313,1.9314,1.938,0,1.8712,1.8802,1.8827,1.8904,1.895,1.8967,1.9012,1.9054,1.9081,1.9126,1.9157,1.9208,1.9202,1.9223,1.9257,1.9292,1.9331,1.9287,1.9356,1.9358,1.9343,1.9407,1.9409,1.9469,1.9389,1.9391,1.9392,0,1.8786,1.8832,1.8913,1.8968,1.8989,1.9028,1.9083,1.9125,1.9175,1.9192,1.9231,1.9247,1.9304,1.9286,1.9366,1.9336,1.9366,1.9387,1.939,1.9399,1.9378,1.9419,1.9489,1.9498,1.9406,1.9404,1.9403,0,1.8811,1.8893,1.8953,1.8978,1.9043,1.9071,1.9099,1.9147,1.918,1.9229,1.9251,1.9306,1.9337,1.938,1.9412,1.9396,1.949,1.9474,1.9508,1.9508,1.9528,1.9526,1.9605,1.9545,1.9545,1.9544,1.9544,0,1.8869,1.8918,1.8966,1.9002,1.9059,1.9089,1.9146,1.9176,1.9218,1.9263,1.9281,1.9323,1.9362,1.941,1.9435,1.9499,1.9512,1.953,1.9536,1.9529,1.9527,1.955,1.9547,1.9547,1.9546,1.9546,1.9545,0,1.8906,1.8939,1.9006,1.9063,1.9079,1.9118,1.9168,1.9206,1.9234,1.9291,1.9306,1.9352,1.9409,1.9445,1.9518,1.9536,1.9607,1.9611,1.9589,1.9593,1.9625,1.9623,1.9722,1.9738,1.9666,1.9666,1.9667,0,1.8942,1.898,1.9041,1.9072,1.9101,1.915,1.9184,1.9216,1.9252,1.9312,1.9343,1.9402,1.9451,1.9543,1.9583,1.9641,1.9647,1.9678,1.9656,1.9648,1.965,1.9648,1.9653,1.9682,1.9683,1.9683,1.9684,0,1.9001,1.9017,1.9064,1.9118,1.9158,1.9203,1.9247,1.9272,1.9312,1.9351,1.941,1.9448,1.9523,1.9582,1.9643,1.9675,1.9687,1.969,1.9702,1.9695,1.9682,1.9692,1.9601,1.9688,1.9688,1.9687,1.9687,1.9687,1.904,1.9076,1.9125,1.9179,1.9216,1.9257,1.9296,1.933,1.9379,1.9442,1.9459,1.9521,1.9573,1.9656,1.9689,1.974,1.9736,1.9752,1.9756,1.976,1.9761,1.9673,1.9751,1.9751,1.9751,1.9751,1.9751,0,1.9103,1.9135,1.9184,1.9246,1.9289,1.9295,1.9345,1.9381,1.9435,1.9482,1.9529,1.9599,1.9657,1.9703,1.9763,1.9795,1.9802,1.981,1.9809,1.9816,1.9761,1.9746,1.9803,1.9803,1.9803,1.9803,1.9803,1.9803,1.914,1.9202,1.9223,1.9305,1.9338,1.9398,1.9427,1.9467,1.9504,1.958,1.9628,1.9657,1.9705,1.9769,1.9823,1.9836,1.9858,1.9865,1.9878,1.9826,1.982,1.9814,1.9801,1.9869,1.9869,1.993,1.9931,1.9931]},{"header":{"parameterUnit":"m.s-1","parameterCategory":1,"la1":30.2991,"la2":30.254,"lo1":-89.0895,"lo2":-89.0444,"dy":0.0017,"dx":0.0017,"nx":28,"ny":28,"refTime":"2025-04-11T03:00:00:Z","depth":0,"parameterNumber":3,"parameterNumberName":"V-component_of_WINDS"},"data":[0,0,0,0,0,0,0,0,0,0,0,0,0,0,0,0,0,0,0,0,0,0,0,0,0,0,0,0,0,0,0,0,0,0,0,0,0,0,0,0,0,0,0,0,0,0,0,0,0,0,0,0,0,0,0,0,0,0,-1.8125,-1.8125,0,-1.8094,-1.8094,-1.8093,-1.8166,-1.8168,-1.8171,-1.8173,-1.8137,-1.8134,-1.8131,0,0,0,0,0,0,0,0,0,0,0,0,0,-1.8245,-1.8242,-1.8125,-1.8125,-1.8124,-1.8094,-1.8094,-1.8093,-1.8166,-1.8168,-1.8171,-1.8174,-1.8138,-1.8134,-1.813,0,0,0,0,0,0,0,0,0,0,0,0,0,-1.8201,-1.8241,-1.8125,-1.8157,-1.816,-1.8094,-1.8094,-1.8093,-1.8165,-1.8169,-1.8172,-1.8175,-1.8139,-1.8134,-1.813,-1.8031,0,0,-1.8115,-1.8113,0,0,0,0,0,0,0,0,-1.8203,-1.8197,-1.8153,-1.8155,-1.8157,-1.8138,-1.8123,-1.8072,-1.8164,-1.8163,-1.8173,-1.8177,-1.8134,-1.813,-1.8116,-1.8029,-1.8028,-1.8115,-1.8112,-1.811,-1.8109,0,0,0,0,0,0,0,-1.8206,-1.8198,-1.8113,-1.8152,-1.8155,-1.8172,-1.817,-1.8113,-1.8129,-1.8163,-1.8168,-1.8164,-1.8136,-1.8121,-1.8116,-1.8027,-1.8115,-1.8111,-1.8108,-1.8106,-1.7859,-1.7856,0,0,0,0,0,0,-1.8206,-1.82,-1.8114,-1.8112,-1.819,-1.8167,-1.8164,-1.814,-1.813,-1.8132,-1.8161,-1.8167,-1.8127,-1.8121,-1.8115,-1.7999,-1.811,-1.8106,-1.8103,-1.7863,-1.7858,-1.7854,0,0,0,0,0,0,-1.8208,-1.8197,-1.8115,-1.8158,-1.8148,-1.8161,-1.8134,-1.8138,-1.8123,-1.8128,-1.8131,-1.8143,-1.8129,-1.8121,-1.8052,-1.7999,-1.8104,-1.8099,-1.7867,-1.7861,-1.7856,-1.7766,0,0,0,0,0,0,-1.8211,-1.8198,-1.8161,-1.8156,-1.8146,-1.8053,-1.813,-1.8135,-1.8115,-1.8123,-1.8112,-1.8113,-1.8132,-1.8059,-1.8047,-1.7994,-1.8096,-1.7872,-1.7865,-1.7858,-1.7774,-1.7758,-1.7745,0,0,0,0,0,-1.8215,-1.8135,-1.8158,-1.8147,-1.81,-1.805,-1.8044,-1.8067,-1.811,-1.8073,-1.8077,-1.8114,-1.8007,-1.8051,-1.8039,-1.7983,-1.7875,-1.7867,-1.7859,-1.778,-1.7761,-1.7745,0,0,0,0,0,0,-1.8131,-1.8135,-1.8161,-1.8077,-1.8063,-1.8062,-1.8015,-1.8046,-1.8018,-1.8026,-1.8056,-1.8053,-1.7978,-1.7974,-1.8023,-1.7888,-1.7948,-1.7937,-1.7893,-1.7875,-1.7861,-1.7862,-1.8092,0,0,0,0,0,-1.8103,-1.8063,-1.8068,-1.7994,-1.7986,-1.8002,-1.798,-1.8001,-1.7986,-1.798,-1.7979,-1.7962,-1.7926,-1.79,-1.7866,-1.7775,-1.7773,-1.7731,-1.7716,-1.7704,-1.7694,-1.7646,-1.7627,-1.7827,-1.7827,-1.7827,0,0,-1.8043,-1.8041,-1.8013,-1.7977,-1.7968,-1.7925,-1.7996,-1.7947,-1.7915,-1.7972,-1.7907,-1.7906,-1.7889,-1.7809,-1.7773,-1.7803,-1.7639,-1.7693,-1.7684,-1.768,-1.7635,-1.7616,-1.7599,-1.7821,-1.7822,-1.7823,0,0,-1.7914,-1.7908,-1.7846,-1.7837,-1.7823,-1.7835,-1.782,-1.7815,-1.7817,-1.7753,-1.7795,-1.7758,-1.7693,-1.7681,-1.7665,-1.7534,-1.7567,-1.7522,-1.7445,-1.7398,-1.7383,-1.7369,-1.7322,-1.7305,-1.7512,-1.7512,-1.7512,0,-1.7841,-1.778,-1.781,-1.7759,-1.7742,-1.7794,-1.7731,-1.772,-1.7695,-1.7682,-1.7717,-1.7639,-1.7631,-1.7549,-1.7517,-1.7503,-1.7487,-1.7523,-1.7383,-1.7369,-1.7357,-1.7312,-1.7295,-1.7507,-1.7507,-1.7508,-1.7508,0,-1.7691,-1.7648,-1.76,-1.7577,-1.7555,-1.7497,-1.7519,-1.7492,-1.7515,-1.7523,-1.7457,-1.7451,-1.7418,-1.74,-1.742,-1.732,-1.734,-1.7378,-1.7439,-1.7332,-1.7291,-1.7274,-1.7499,-1.7501,-1.7502,-1.7504,0,0,-1.7505,-1.7502,-1.7484,-1.7475,-1.7465,-1.7432,-1.7378,-1.7347,-1.7324,-1.7306,-1.7262,-1.7207,-1.7244,-1.7227,-1.7247,-1.7206,-1.7103,-1.725,-1.725,-1.7222,-1.6992,-1.6963,-1.6943,-1.7125,-1.7122,-1.712,-1.6994,0,-1.7377,-1.7285,-1.7312,-1.722,-1.7181,-1.7231,-1.7185,-1.7173,-1.718,-1.7147,-1.7154,-1.7115,-1.7166,-1.7157,-1.7118,-1.7123,-1.7057,-1.7133,-1.7083,-1.7081,-1.7084,-1.6921,-1.6889,-1.677,-1.6978,-1.6975,-1.6973,0,-1.7214,-1.7192,-1.7097,-1.7096,-1.708,-1.7038,-1.7013,-1.6981,-1.697,-1.6978,-1.696,-1.699,-1.6937,-1.6999,-1.6927,-1.6978,-1.696,-1.6959,-1.6955,-1.695,-1.7019,-1.6911,-1.6733,-1.6715,-1.6948,-1.695,-1.6952,0,-1.7087,-1.7034,-1.697,-1.6961,-1.6959,-1.6928,-1.6925,-1.6918,-1.6898,-1.6876,-1.6864,-1.6835,-1.6819,-1.6796,-1.6817,-1.6861,-1.6741,-1.6806,-1.6746,-1.6745,-1.6716,-1.6718,-1.6532,-1.6706,-1.6706,-1.6707,-1.6707,0,-1.694,-1.688,-1.6914,-1.6874,-1.6808,-1.684,-1.6774,-1.6777,-1.677,-1.6732,-1.6774,-1.6737,-1.6768,-1.6734,-1.675,-1.6687,-1.668,-1.6684,-1.6689,-1.668,-1.6679,-1.6667,-1.6675,-1.6702,-1.6703,-1.6704,-1.6705,0,-1.6786,-1.6807,-1.6741,-1.6745,-1.6745,-1.6696,-1.6699,-1.6663,-1.6674,-1.6625,-1.6616,-1.6632,-1.6595,-1.6614,-1.6574,-1.6586,-1.6505,-1.6521,-1.6509,-1.6513,-1.6452,-1.6457,-1.625,-1.6225,-1.6416,-1.6414,-1.6413,0,-1.6691,-1.6646,-1.6646,-1.6625,-1.662,-1.6584,-1.6565,-1.6595,-1.6574,-1.656,-1.6525,-1.6491,-1.6466,-1.6403,-1.6411,-1.6382,-1.6397,-1.6327,-1.6392,-1.6385,-1.6395,-1.6397,-1.6393,-1.6313,-1.6311,-1.6309,-1.6307,0,-1.6519,-1.6532,-1.6504,-1.6479,-1.6456,-1.6438,-1.6423,-1.6403,-1.6433,-1.6407,-1.637,-1.6351,-1.6312,-1.6278,-1.6253,-1.625,-1.6283,-1.6287,-1.6272,-1.6261,-1.6256,-1.6258,-1.6472,-1.6291,-1.6293,-1.6294,-1.6295,-1.6296,-1.6391,-1.6354,-1.6349,-1.6316,-1.6309,-1.6295,-1.6262,-1.627,-1.624,-1.6212,-1.6232,-1.6188,-1.618,-1.615,-1.6143,-1.6109,-1.6137,-1.6114,-1.6109,-1.6102,-1.6094,-1.6263,-1.6105,-1.6105,-1.6106,-1.6106,-1.6106,0,-1.622,-1.6221,-1.6191,-1.617,-1.6145,-1.6182,-1.6168,-1.6144,-1.6106,-1.6096,-1.6071,-1.6029,-1.5998,-1.6004,-1.5976,-1.5947,-1.5962,-1.5938,-1.594,-1.5939,-1.6071,-1.6087,-1.5927,-1.5927,-1.5927,-1.5927,-1.5927,-1.5927,-1.6129,-1.6068,-1.6081,-1.6018,-1.6019,-1.5977,-1.5967,-1.5954,-1.5947,-1.5899,-1.5873,-1.5879,-1.5876,-1.5848,-1.582,-1.5823,-1.581,-1.5781,-1.5789,-1.5912,-1.5929,-1.5946,-1.5962,-1.5778,-1.5778,-1.566,-1.5659,-1.5658]}]]